Location: Asheville, NC
(35.6000°N, 82.5500°W)
Time: 00:24:55
(UTC-04:00)

Vanguard 1 Rocket - Pass Details

Date: 15 March 2018
Orbit: 653 x 4224 km, 34.3° (Epoch: 22 June)

Event Time Altitude Azimuth Distance (km) Brightness Sun altitude
Rises 03:20:50 0° 279° (W) 7,045 - -49.1°
Reaches altitude 10° 03:26:49 10° 266° (W) 6,523 - -48.3°
Maximum altitude 03:41:55 23° 224° (SW) 6,239 - -46.1°
Drops below altitude 10° 03:59:07 10° 182° (S) 7,303 - -43.4°
Exits shadow 04:00:39 - 179° (S) 7,440 11.7 -43.2°
Sets 04:06:51 0° 169° (S) 8,032 12.0 -42.1°
